Wolf Point, MT

9:17 AM MDT on August 22, 2017 (GMT -0600)
Clayton

Weather History for KOLF - January, 2014

Change the Weather History Date:

Monday, January 27, 2014

  Actual Average Record
Temperature  
Mean Temperature 1 °F -  
Max Temperature 10 °F 25 °F 51 °F (2015)
Min Temperature -9 °F 0 °F -24 °F (2009)
Degree Days  
Heating Degree Days 64    
Cooling Degree Days 0    
Moisture  
Dew Point -11 °F    
Average Humidity 61    
Maximum Humidity 76    
Minimum Humidity 36    
Precipitation  
Precipitation T in 0.01 in 0.05 in (2002)
Month to date precipitation 0.05 0.29  
Year to date precipitation 0.05 0.29  
Sea Level Pressure  
Sea Level Pressure 30.58 in    
Wind  
Wind Speed 4 mph (NNW)    
Max Wind Speed 12 mph    
Max Gust Speed -    
Visibility 10 miles    
Events      
T = Trace of Precipitation, MM = Missing Value Source: NWS Daily Summary

Daily Weather History Graph

Daily Weather History Graph

Search for Another Location

Airport or City:

Trip Planner

Search our weather history database for the weather conditions in past years. The results will help you decide how hot, cold, wet, or windy it might be!

Date:

Astronomy

Jan. 27, 2014 Rise Set
Actual Time 7:36 AM MST 4:54 PM MST
Civil Twilight 7:02 AM MST 5:28 PM MST
Nautical Twilight 6:24 AM MST 6:06 PM MST
Astronomical Twilight 5:48 AM MST 6:42 PM MST
Moon 4:23 AM MST (1/27) 1:39 PM MST (1/27)
Length of Visible Light 10h 25m
Length of Day
9h 18m
Waning Crescent, 14% of the Moon is Illuminated
Jan 27
Waning Crescent
Jan 30
New
Feb 6
First Quarter
Feb 14
Full
Feb 22
Last Quarter

Hourly Weather History & Observations

Time (MST) Temp. Windchill Dew Point Humidity Pressure Visibility Wind Dir Wind Speed Gust Speed Precip Events Conditions
12:53 AM -0.0 °F -13.0 °F -11.0 °F 60% 30.59 in 10.0 mi NNW 6.9 mph - N/A   Overcast
1:53 AM -0.9 °F -14.1 °F -11.0 °F 62% 30.57 in 10.0 mi NNW 6.9 mph - N/A   Overcast
2:53 AM -2.9 °F -11.2 °F -11.0 °F 68% 30.58 in 10.0 mi North 3.5 mph - N/A   Partly Cloudy
3:53 AM -5.1 °F - -11.9 °F 72% 30.58 in 10.0 mi Calm Calm - N/A   Clear
4:53 AM -6.0 °F - -13.0 °F 72% 30.59 in 10.0 mi Calm Calm - N/A   Clear
5:53 AM -6.0 °F - -11.9 °F 75% 30.60 in 10.0 mi Calm Calm - N/A   Clear
6:53 AM -7.1 °F - -14.1 °F 72% 30.61 in 10.0 mi Calm Calm - N/A   Clear
7:53 AM -7.1 °F - -14.1 °F 72% 30.61 in 10.0 mi Calm Calm - N/A   Clear
8:53 AM -2.9 °F - -11.0 °F 68% 30.62 in 10.0 mi Calm Calm - N/A   Clear
9:53 AM 1.0 °F -8.7 °F -9.0 °F 63% 30.62 in 10.0 mi Variable 4.6 mph - N/A   Clear
10:53 AM 3.0 °F -9.3 °F -11.0 °F 52% 30.61 in 10.0 mi NW 6.9 mph - N/A   Clear
11:53 AM 6.1 °F -7.8 °F -11.9 °F 44% 30.58 in 10.0 mi NNW 9.2 mph - 0.00 in   Clear
12:53 PM 7.0 °F -4.5 °F -13.0 °F 40% 30.55 in 10.0 mi NW 6.9 mph - 0.00 in   Clear
1:53 PM 9.0 °F -5.1 °F -11.9 °F 38% 30.54 in 10.0 mi NNW 10.4 mph - N/A   Clear
2:53 PM 9.0 °F -5.9 °F -13.0 °F 36% 30.54 in 10.0 mi NNW 11.5 mph - N/A   Clear
3:53 PM 9.0 °F -5.9 °F -11.9 °F 38% 30.56 in 10.0 mi NNW 11.5 mph - N/A   Clear
4:53 PM 5.0 °F -8.1 °F -11.0 °F 48% 30.57 in 10.0 mi NW 8.1 mph - N/A   Clear
5:53 PM 1.0 °F -6.7 °F -9.9 °F 60% 30.58 in 10.0 mi NNW 3.5 mph - N/A   Clear
6:53 PM -0.9 °F -12.7 °F -9.9 °F 66% 30.60 in 10.0 mi North 5.8 mph - N/A   Clear
7:53 PM -4.0 °F - -9.9 °F 76% 30.60 in 10.0 mi Calm Calm - N/A   Clear
8:53 PM -2.9 °F - -11.0 °F 68% 30.59 in 10.0 mi Calm Calm - N/A   Clear
9:53 PM -4.0 °F -12.4 °F -9.9 °F 76% 30.58 in 10.0 mi SW 3.5 mph - N/A   Overcast
10:53 PM -2.9 °F - -9.9 °F 72% 30.58 in 10.0 mi Calm Calm - N/A   Scattered Clouds
11:53 PM -5.1 °F -13.6 °F -11.9 °F 72% 30.56 in 10.0 mi WNW 3.5 mph - N/A   Clear